This is the latest recevied weather packets stored in our database for station/object OM4MO-10. If no packets are shown the sender has not sent any weather packets the latest 10 day(s).
| Time | Temp. | Humidity | Pressure | Rain* | Wind** | Luminosity | Snow |
|---|---|---|---|---|---|---|---|
| 1788158452 | 22.22° C | 79% | 1018.3 hPa | - | - | - | - |
| 1788157552 | 20° C | 79% | 1018.2 hPa | - | - | - | - |
| 1788156652 | 18.89° C | 79% | 1018.4 hPa | - | - | - | - |
| 1788155752 | 17.78° C | 79% | 1018.4 hPa | - | - | - | - |
| 1788153358 | 16.11° C | 79% | 1018.7 hPa | - | - | - | - |
| 1788152458 | 15.56° C | 79% | 1018.7 hPa | - | - | - | - |
| 1788151557 | 15° C | 79% | 1018.6 hPa | - | - | - | - |
| 1788150657 | 15° C | 79% | 1018.5 hPa | - | - | - | - |
| 1788149757 | 14.44° C | 79% | 1018.2 hPa | - | - | - | - |
| 1788148857 | 14.44° C | 79% | 1018.2 hPa | - | - | - | - |
| 1788147957 | 14.44° C | 79% | 1018.2 hPa | - | - | - | - |
| 1788147069 | 14.44° C | 79% | 1018.2 hPa | - | - | - | - |
| 1788146157 | 13.89° C | 79% | 1018.5 hPa | - | - | - | - |
| 1788145256 | 13.89° C | 79% | 1018.6 hPa | - | - | - | - |
| 1788144356 | 13.89° C | 79% | 1018.6 hPa | - | - | - | - |
| 1788143456 | 13.89° C | 79% | 1018.7 hPa | - | - | - | - |
| 1788142556 | 14.44° C | 79% | 1018.6 hPa | - | - | - | - |
| 1788141656 | 14.44° C | 79% | 1018.7 hPa | - | - | - | - |
| 1788140756 | 14.44° C | 79% | 1018.8 hPa | - | - | - | - |
| 1788139856 | 14.44° C | 79% | 1018.8 hPa | - | - | - | - |
| 1788138955 | 14.44° C | 79% | 1018.8 hPa | - | - | - | - |
| 1788138055 | 15° C | 79% | 1018.7 hPa | - | - | - | - |
| 1788137155 | 14.44° C | 79% | 1018.9 hPa | - | - | - | - |
| 1788136255 | 14.44° C | 79% | 1018.9 hPa | - | - | - | - |
| 1788135355 | 14.44° C | 79% | 1018.9 hPa | - | - | - | - |
* Rain since midnight (hover to see other rain measurements)
** Current wind speed in m/s (hover to see current wind gust speed)